レモン彗星

C/2019 T2 ( Lemmon )

English version
Home page
Updated on March 7, 2023

---------------------------------------------------------------------

・ プロフィール

発見日 2019年10月9日
発見光度 20.6等
発見者 Mt. Lemmon Survey

・ 写真集

・ 軌道要素

Epoch 2023 Feb. 25.0 TT = JDT 2460000.5
T 2021 Apr. 22.50839 TT                                 Rudenko
q   2.6463555            (2000.0)            P               Q
z  +0.0002634      Peri.  239.43048     +0.33334736     -0.86119399
 +/-0.0000004      Node   155.64862     -0.13720065     +0.35833238
e   0.9993029      Incl.  111.47802     -0.93276767     -0.36047581
>From 779 observations 2019 Aug. 26-2022 Dec. 23, mean residual 0".7.

・ 星図

・ 光度変化

        m1 = 9.0 + 5 logΔ + 10.0 log r(t + 80)

---------------------------------------------------------------------

軌道要素はM.P.E.C. 2022-Y232に掲載されたものです。
星図はステラナビゲータ Ver.10 (アストロアーツ) で作成したものです。
光度グラフはComet for Windowsで作成したものです。

---------------------------------------------------------------------

Copyright(C) Seiichi Yoshida (comet@aerith.net). All rights reserved.